• In Italy
  • List of Countries
  • For 7 days
  • Water Temperature
  • Satellite Maps
  • Weather Map
  • Weather Widgets
  • user-avatar
    Login

    Hourly Weather Nagpur

    Today, 18 November, Saturday

    Time Temperature Precipitation Wind Pressure Humidity
    00:00 +24°C° 0 mm 1 mps 732 mmHg 77%
    01:00 +23°C° 0 mm 1 mps 732 mmHg 78%
    02:00 +23°C° 0 mm 1 mps 732 mmHg 80%
    03:00 +23°C° 0 mm 1 mps 732 mmHg 80%
    04:00 +23°C° 0 mm 1 mps 732 mmHg 81%
    05:00 +22°C° 0 mm 1 mps 732 mmHg 89%
    06:00 +24°C° 0 mm 1 mps 732 mmHg 84%
    07:00 +25°C° 0 mm 1 mps 732 mmHg 80%
    08:00 +26°C° 0 mm 1 mps 733 mmHg 75%
    09:00 +28°C° 0 mm 1 mps 733 mmHg 67%
    10:00 +29°C° 0 mm 1 mps 733 mmHg 59%
    11:00 +31°C° 0 mm 2 mps 733 mmHg 52%
    12:00 +32°C° 0 mm 1 mps 733 mmHg 49%
    13:00 +32°C° 0 mm 1 mps 732 mmHg 45%
    14:00 +33°C° 0 mm 1 mps 732 mmHg 42%
    15:00 +31°C° 0 mm 1 mps 731 mmHg 45%
    16:00 +30°C° 0 mm 1 mps 731 mmHg 49%
    17:00 +28°C° 0 mm 1 mps 731 mmHg 53%
    18:00 +28°C° 0 mm 1 mps 732 mmHg 56%
    19:00 +27°C° 0 mm 1 mps 732 mmHg 58%
    20:00 +26°C° 0 mm 1 mps 732 mmHg 61%
    21:00 +26°C° 0 mm 1 mps 732 mmHg 63%
    22:00 +26°C° 0 mm 1 mps 732 mmHg 64%
    23:00 +25°C° 0 mm 1 mps 732 mmHg 66%

    Tomorrow, 19 November, Sunday

    Time Temperature Precipitation Wind Pressure Humidity
    00:00 +25°C° 0 mm 1 mps 732 mmHg 67%
    01:00 +24°C° 0 mm 1 mps 732 mmHg 69%
    02:00 +24°C° 0 mm 1 mps 732 mmHg 70%
    03:00 +24°C° 0 mm 1 mps 732 mmHg 72%
    04:00 +23°C° 0 mm 1 mps 732 mmHg 73%
    05:00 +23°C° 0 mm 1 mps 732 mmHg 74%
    06:00 +24°C° 0 mm 1 mps 733 mmHg 70%
    07:00 +26°C° 0 mm 1 mps 733 mmHg 66%
    08:00 +27°C° 0 mm 1 mps 734 mmHg 62%
    09:00 +29°C° 0 mm 1 mps 734 mmHg 57%
    10:00 +30°C° 0 mm 1 mps 734 mmHg 51%
    11:00 +32°C° 0 mm 1 mps 734 mmHg 45%
    12:00 +33°C° 0 mm 1 mps 733 mmHg 42%
    13:00 +33°C° 0 mm 1 mps 733 mmHg 40%
    14:00 +31°C° 0 mm 0 mps 732 mmHg 38%
    15:00 +30°C° 0 mm 0 mps 732 mmHg 41%
    16:00 +28°C° 0 mm 0 mps 732 mmHg 44%
    17:00 +27°C° 0 mm 0 mps 732 mmHg 48%
    18:00 +28°C° 0 mm 1 mps 733 mmHg 50%
    19:00 +28°C° 0 mm 1 mps 733 mmHg 52%
    20:00 +27°C° 0 mm 2 mps 734 mmHg 55%
    21:00 +26°C° 0 mm 2 mps 734 mmHg 57%
    22:00 +26°C° 0 mm 3 mps 734 mmHg 59%
    23:00 +25°C° 0 mm 3 mps 734 mmHg 61%

    Day after tomorrow, 20 November, Monday

    Time Temperature Precipitation Wind Pressure Humidity
    00:00 +24°C° 0 mm 3 mps 734 mmHg 62%
    01:00 +24°C° 0 mm 3 mps 733 mmHg 63%
    02:00 +22°C° 0 mm 3 mps 733 mmHg 64%
    03:00 +22°C° 0 mm 3 mps 733 mmHg 65%
    04:00 +22°C° 0 mm 3 mps 733 mmHg 65%
    05:00 +22°C° 0 mm 3 mps 733 mmHg 65%
    06:00 +24°C° 0 mm 3 mps 734 mmHg 62%
    07:00 +25°C° 0 mm 4 mps 735 mmHg 59%
    08:00 +26°C° 0 mm 4 mps 735 mmHg 56%
    09:00 +28°C° 0 mm 4 mps 735 mmHg 52%
    10:00 +30°C° 0 mm 4 mps 735 mmHg 47%
    11:00 +31°C° 0 mm 3 mps 735 mmHg 43%
    12:00 +33°C° 0 mm 3 mps 734 mmHg 40%
    13:00 +33°C° 0 mm 3 mps 733 mmHg 38%
    14:00 +34°C° 0 mm 2 mps 732 mmHg 36%
    15:00 +31°C° 0 mm 2 mps 732 mmHg 39%
    16:00 +30°C° 0 mm 2 mps 732 mmHg 43%
    17:00 +28°C° 0 mm 2 mps 732 mmHg 46%
    18:00 +28°C° 0 mm 2 mps 733 mmHg 47%
    19:00 +27°C° 0 mm 3 mps 733 mmHg 48%
    20:00 +26°C° 0 mm 3 mps 734 mmHg 49%
    21:00 +25°C° 0 mm 3 mps 734 mmHg 48%
    22:00 +25°C° 0 mm 3 mps 734 mmHg 48%
    23:00 +24°C° 0 mm 3 mps 734 mmHg 48%

    21 November, Tuesday

    Time Temperature Precipitation Wind Pressure Humidity
    00:00 +22°C° 0 mm 3 mps 733 mmHg 48%
    01:00 +22°C° 0 mm 3 mps 733 mmHg 49%
    02:00 +22°C° 0 mm 3 mps 733 mmHg 49%
    03:00 +21°C° 0 mm 3 mps 733 mmHg 50%
    04:00 +21°C° 0 mm 3 mps 733 mmHg 50%
    05:00 +21°C° 0 mm 3 mps 733 mmHg 51%
    06:00 +22°C° 0 mm 3 mps 734 mmHg 50%
    07:00 +24°C° 0 mm 3 mps 734 mmHg 48%
    08:00 +25°C° 0 mm 4 mps 735 mmHg 47%
    09:00 +27°C° 0 mm 3 mps 735 mmHg 42%
    10:00 +28°C° 0 mm 3 mps 735 mmHg 38%
    11:00 +30°C° 0 mm 3 mps 735 mmHg 33%
    12:00 +31°C° 0 mm 2 mps 734 mmHg 32%
    13:00 +32°C° 0 mm 2 mps 733 mmHg 31%
    14:00 +32°C° 0 mm 2 mps 732 mmHg 31%
    15:00 +30°C° 0 mm 1 mps 732 mmHg 34%
    16:00 +29°C° 0 mm 1 mps 732 mmHg 37%
    17:00 +27°C° 0 mm 1 mps 732 mmHg 41%
    18:00 +26°C° 0 mm 1 mps 732 mmHg 42%
    19:00 +26°C° 0 mm 2 mps 733 mmHg 43%
    20:00 +25°C° 0 mm 2 mps 734 mmHg 44%
    21:00 +24°C° 0 mm 2 mps 734 mmHg 44%
    22:00 +23°C° 0 mm 2 mps 734 mmHg 45%
    23:00 +23°C° 0 mm 2 mps 734 mmHg 46%

    22 November, Wednesday

    Time Temperature Precipitation Wind Pressure Humidity
    00:00 +21°C° 0 mm 2 mps 733 mmHg 46%
    01:00 +21°C° 0 mm 2 mps 733 mmHg 46%
    02:00 +20°C° 0 mm 2 mps 732 mmHg 47%
    03:00 +20°C° 0 mm 2 mps 732 mmHg 47%
    04:00 +20°C° 0 mm 2 mps 732 mmHg 47%
    05:00 +19°C° 0 mm 2 mps 732 mmHg 48%
    06:00 +21°C° 0 mm 2 mps 733 mmHg 47%
    07:00 +23°C° 0 mm 2 mps 734 mmHg 45%
    08:00 +24°C° 0 mm 2 mps 735 mmHg 44%
    09:00 +26°C° 0 mm 2 mps 734 mmHg 40%
    10:00 +28°C° 0 mm 2 mps 734 mmHg 35%
    11:00 +30°C° 0 mm 2 mps 734 mmHg 31%
    12:00 +31°C° 0 mm 2 mps 733 mmHg 31%
    13:00 +31°C° 0 mm 2 mps 732 mmHg 30%
    14:00 +32°C° 0 mm 2 mps 732 mmHg 29%
    15:00 +30°C° 0 mm 1 mps 732 mmHg 33%
    16:00 +29°C° 0 mm 1 mps 732 mmHg 37%
    17:00 +27°C° 0 mm 1 mps 732 mmHg 41%
    18:00 +26°C° 0 mm 1 mps 732 mmHg 42%
    19:00 +25°C° 0 mm 1 mps 733 mmHg 44%
    20:00 +24°C° 0 mm 2 mps 733 mmHg 45%
    21:00 +24°C° 0 mm 2 mps 733 mmHg 46%
    22:00 +23°C° 0 mm 2 mps 733 mmHg 46%
    23:00 +21°C° 0 mm 2 mps 733 mmHg 47%

    23 November, Thursday

    Time Temperature Precipitation Wind Pressure Humidity
    00:00 +21°C° 0 mm 2 mps 733 mmHg 47%
    01:00 +20°C° 0 mm 2 mps 732 mmHg 47%
    02:00 +21°C° 0 mm 1 mps 732 mmHg 47%
    03:00 +20°C° 0 mm 2 mps 732 mmHg 48%
    04:00 +19°C° 0 mm 2 mps 732 mmHg 48%
    05:00 +19°C° 0 mm 2 mps 732 mmHg 49%
    06:00 +20°C° 0 mm 2 mps 733 mmHg 47%
    07:00 +21°C° 0 mm 2 mps 734 mmHg 46%
    08:00 +24°C° 0 mm 2 mps 734 mmHg 44%
    09:00 +26°C° 0 mm 2 mps 734 mmHg 40%
    10:00 +28°C° 0 mm 2 mps 734 mmHg 35%
    11:00 +30°C° 0 mm 1 mps 734 mmHg 31%
    12:00 +30°C° 0 mm 2 mps 733 mmHg 30%
    13:00 +31°C° 0 mm 2 mps 732 mmHg 28%
    14:00 +32°C° 0 mm 2 mps 732 mmHg 27%
    15:00 +30°C° 0 mm 1 mps 732 mmHg 31%
    16:00 +28°C° 0 mm 1 mps 732 mmHg 34%
    17:00 +27°C° 0 mm 1 mps 732 mmHg 38%
    18:00 +26°C° 0 mm 1 mps 732 mmHg 39%
    19:00 +25°C° 0 mm 1 mps 733 mmHg 40%
    20:00 +24°C° 0 mm 1 mps 733 mmHg 41%
    21:00 +23°C° 0 mm 2 mps 733 mmHg 42%
    22:00 +21°C° 0 mm 2 mps 733 mmHg 42%
    23:00 +21°C° 0 mm 2 mps 733 mmHg 42%
    Show more